Tracking 19562 objects as of 25-Mar-2019
HD Live streaming from Space Station
objects crossing your sky now

COSMOS 1802

Track COSMOS 1802 now!
10-day predictions
COSMOS 1802 is classified as:


NORAD ID: 17159
Int'l Code: 1986-093A
Perigee: 966.5 km
Apogee: 1,027.3 km
Inclination: 82.9 °
Period: 104.9 minutes
Semi major axis: 7367 km
RCS: 2.3219 m2 (large)
Launch date: November 24, 1986
Source: Commonwealth of Independent States (former USSR) (CIS)
Launch site: PLESETSK MISSILE AND SPACE COMPLEX (PKMTR)
aabbcc
Your satellite tracking list
Your tracking list is empty




NASA's NSSDC Master Catalog

Two Line Element Set (TLE):
1 17159U 86093A   19083.83690102  .00000027  00000-0  13809-4 0  9993
2 17159  82.9313 334.0853 0041230 262.6488 167.2448 13.72734979619496
Source of the keplerian elements: AFSPC